Station DESW1 - Destruction Island, WA Image indicating link to RSS feed of recent meteorological observations for station DESW1


Conditions at DESW1 as of
(2:00 pm CDT)
1900 GMT on 04/23/2024:
     

Click on the graph icon in the table below to see a time series plot of the last five days of that observation.

5-day plot - Wind Direction Wind Direction (WDIR): NW ( 310 deg true )
5-day plot - Wind Speed Wind Speed (WSPD): 15 kts
5-day plot - Wind Gust Wind Gust (GST): 17 kts
5-day plot - Atmospheric Pressure Atmospheric Pressure (PRES):29.99 in
5-day plot - Pressure Tendency Pressure Tendency (PTDY):+0.01 in ( Rising )
5-day plot - Wind Speed at 10 Meters Wind Speed at 10 meters (WSPD10M): 14 kts
5-day plot - Wind Speed at 20 Meters Wind Speed at 20 meters (WSPD20M): 16 kts
5-day plot -  Wind Speed, Wind Gust and Atmospheric Pressure Combined plot of Wind Speed, Gust, and Air Pressure
Continuous Winds
TIME
(CDT)
5-day plot - Wind Direction WDIR 5-day plot - Wind Speed WSPD
2:00 pmNW ( 314 deg ) 16 kts
1:50 pmNW ( 313 deg ) 13 kts
1:40 pmNW ( 313 deg ) 13 kts
1:30 pmNW ( 313 deg ) 12 kts
1:20 pmNW ( 311 deg ) 11 kts
1:10 pmNW ( 311 deg ) 10 kts
 
Peak gust during the measurement hour
TIME
(CDT)
5-day plot - Gust Direction GDR 5-day plot - Gust Speed GST
1:59 pmNW ( 310 deg ) 17 kts
Previous observations
TIME
(CDT)
5-day plot - Wind Direction
WDIR
 
5-day plot - Wind Speed
WSPD
kts
5-day plot - Wind Gust
GST
kts
5-day plot - Wave Height
WVHT
ft
5-day plot - Dominant Wave Period
DPD
sec
5-day plot - Average Wave Period
APD
sec
5-day plot - Mean Wave Direction
MWD
 
5-day plot - Atmospheric Pressure
PRES
in
5-day plot - Pressure Tendency
PTDY
in
5-day plot - Air Temperature
ATMP
°F
5-day plot - Water Temperature
WTMP
°F
5-day plot - Dew Point
DEWP
°F
5-day plot - Salinity
SAL
psu
5-day plot - Visibility
VIS
nmi
5-day plot - Tide (above MLLW)
TIDE
ft
2024-04-23 01:00 pm NW 10 11----29.99+0.01------
2024-04-23 12:00 pm- 0 2----29.98+0.01------
2024-04-23 11:00 am- 0 1----29.98+0.01------
2024-04-23 10:00 amNNE 4 4----29.98+0.00------
2024-04-23 09:00 amENE 7 8----29.97-0.01------
2024-04-23 08:00 amENE 4 6----29.97-0.02------
2024-04-23 07:00 am N 1 2----29.98-0.02------
2024-04-23 06:00 am NE 4 5----29.98-0.02------
2024-04-23 05:00 am NE 6 7----29.99-0.02------
2024-04-23 04:00 am N 3 3----30.00-0.01------
2024-04-23 03:00 am N 11 12----30.00-0.01------
2024-04-23 02:00 am N 10 11----30.01+0.00------
2024-04-23 01:00 amNNW 12 12----30.01+0.00------
2024-04-23 12:00 amNNW 15 16----30.01+0.00------
2024-04-22 11:00 pm NW 19 22----30.01-0.04------
2024-04-22 10:00 pmNNW 14 15----30.01-0.06------
2024-04-22 09:00 pmNNW 20 21----30.02-0.07------
2024-04-22 08:00 pm NW 16 18----30.05-0.07------
2024-04-22 07:00 pm NW 10 11----30.07-0.07------
2024-04-22 06:00 pmWNW 12 13----30.09-0.07------
2024-04-22 05:00 pmWNW 7 8----30.11-0.06------
2024-04-22 04:00 pm NW 8 10----30.14-0.05------
2024-04-22 03:00 pm W 8 9----30.16-0.04------
2024-04-22 02:00 pm W 5 6----30.18-0.04------